sat.trackr.live / text

‹ back to catalog

STARLINK-37193

NORAD 68390 · 2026-063L

PAYLOAD ACTIVE UNKNOWN

§ Identity

Operator
Country
US
Launch date
2026-03-26
Launch site
AFWTR
Launch vehicle
Mass (kg)
RCS (m²)

Purposes: comms

External: N2YO · Heavens-Above · Gunter

§ Orbital elements

Epoch: 2026-05-25T03:01:07.606272Z

Period
90.91 min
Inclination
97.2854°
Eccentricity
0.0005104
Mean motion
15.84011159 rev/d
Perigee alt
315.7 km
Apogee alt
322.5 km
Semi-major
6,697.2 km
B*
1.8671e-3
RAAN
289.1383°
Arg perigee
259.2965°
Mean anomaly
100.7730°
Rev number
970

§ Raw data

STARLINK-371931 68390U 26063L   26145.12578248  .00435957  00000+0  18671-2 0  99952 68390  97.2854 289.1383 0005104 259.2965 100.7730 15.84011159  9704

JSON: /api/v1/satellites/68390 · /tle

For live sub-satellite position, see the globe view (requires WebGL).

§ Visibility from observer

Set your observer location to see the next 7 days of passes ≥ 10°. The values pass through the URL so the page stays shareable.

No JS? Fill the form by hand. The geolocation button needs JavaScript.